When you browse on this site, cookies collect data to enhance your experience and personalize the content and advertising you see.
Visit our Privacy Policy to learn more. By continuing to use the site, you agree to this use of cookies and data.
  • In France
  • List of Countries
  • For 7 days
  • Water Temperature
  • Weather Map
  • Weather Widgets
  • user-avatar
    Login

    Hourly Weather Walerianow

    Today, 19 October, Saturday

    Time Temperature Precipitation Wind Pressure Humidity
    00:00 +13°C° 0 mm 3 mps 746 mmHg 80%
    01:00 +12°C° 0 mm 3 mps 747 mmHg 82%
    02:00 +12°C° 0 mm 3 mps 746 mmHg 84%
    03:00 +12°C° 0 mm 3 mps 746 mmHg 86%
    04:00 +11°C° 0 mm 3 mps 746 mmHg 89%
    05:00 +11°C° 0 mm 3 mps 747 mmHg 88%
    06:00 +11°C° 0 mm 3 mps 747 mmHg 88%
    07:00 +13°C° 0 mm 2 mps 747 mmHg 88%
    08:00 +14°C° 0 mm 2 mps 747 mmHg 80%
    09:00 +16°C° 0 mm 2 mps 747 mmHg 72%
    10:00 +17°C° 0 mm 2 mps 747 mmHg 64%
    11:00 +18°C° 0 mm 2 mps 747 mmHg 60%
    12:00 +19°C° 0 mm 2 mps 747 mmHg 56%
    13:00 +20°C° 0 mm 2 mps 747 mmHg 53%
    14:00 +19°C° 0 mm 2 mps 746 mmHg 57%
    15:00 +19°C° 0 mm 2 mps 746 mmHg 61%
    16:00 +18°C° 0 mm 2 mps 746 mmHg 65%
    17:00 +17°C° 0 mm 2 mps 746 mmHg 69%
    18:00 +16°C° 0 mm 2 mps 746 mmHg 72%
    19:00 +15°C° 0 mm 1 mps 746 mmHg 76%
    20:00 +15°C° 0 mm 2 mps 746 mmHg 77%
    21:00 +15°C° 0 mm 2 mps 746 mmHg 78%
    22:00 +15°C° 0 mm 2 mps 746 mmHg 80%
    23:00 +15°C° 0 mm 2 mps 746 mmHg 79%

    Tomorrow, 20 October, Sunday

    Time Temperature Precipitation Wind Pressure Humidity
    00:00 +15°C° 0 mm 2 mps 746 mmHg 77%
    01:00 +15°C° 0 mm 2 mps 746 mmHg 76%
    02:00 +15°C° 0 mm 2 mps 746 mmHg 76%
    03:00 +15°C° 0 mm 2 mps 746 mmHg 76%
    04:00 +14°C° 0 mm 2 mps 747 mmHg 75%
    05:00 +14°C° 0 mm 2 mps 747 mmHg 76%
    06:00 +14°C° 0 mm 2 mps 747 mmHg 78%
    07:00 +14°C° 0 mm 2 mps 747 mmHg 79%
    08:00 +16°C° 0 mm 2 mps 747 mmHg 73%
    09:00 +18°C° 0 mm 2 mps 747 mmHg 67%
    10:00 +19°C° 0 mm 2 mps 748 mmHg 62%
    11:00 +20°C° 0 mm 2 mps 747 mmHg 58%
    12:00 +21°C° 0 mm 2 mps 747 mmHg 55%
    13:00 +23°C° 0 mm 2 mps 747 mmHg 51%
    14:00 +21°C° 0 mm 2 mps 747 mmHg 55%
    15:00 +20°C° 0 mm 2 mps 747 mmHg 58%
    16:00 +21°C° 0 mm 1 mps 747 mmHg 62%
    17:00 +20°C° 0 mm 1 mps 747 mmHg 66%
    18:00 +19°C° 0 mm 1 mps 747 mmHg 70%
    19:00 +16°C° 0 mm 1 mps 747 mmHg 74%
    20:00 +16°C° 0 mm 1 mps 747 mmHg 75%
    21:00 +16°C° 0 mm 1 mps 747 mmHg 77%
    22:00 +15°C° 0 mm 1 mps 747 mmHg 79%
    23:00 +15°C° 0 mm 1 mps 747 mmHg 79%

    Day after tomorrow, 21 October, Monday

    Time Temperature Precipitation Wind Pressure Humidity
    00:00 +15°C° 0 mm 2 mps 747 mmHg 80%
    01:00 +15°C° 0 mm 2 mps 747 mmHg 80%
    02:00 +15°C° 0 mm 2 mps 746 mmHg 80%
    03:00 +14°C° 0 mm 2 mps 746 mmHg 81%
    04:00 +14°C° 0 mm 2 mps 746 mmHg 81%
    05:00 +14°C° 0 mm 2 mps 746 mmHg 80%
    06:00 +14°C° 0 mm 2 mps 746 mmHg 80%
    07:00 +14°C° 0 mm 1 mps 747 mmHg 79%
    08:00 +16°C° 0 mm 2 mps 747 mmHg 72%
    09:00 +18°C° 0 mm 2 mps 747 mmHg 65%
    10:00 +20°C° 0 mm 2 mps 747 mmHg 59%
    11:00 +20°C° 0 mm 2 mps 747 mmHg 57%
    12:00 +21°C° 0 mm 2 mps 748 mmHg 55%
    13:00 +23°C° 0 mm 2 mps 748 mmHg 54%
    14:00 +21°C° 0 mm 2 mps 748 mmHg 58%
    15:00 +20°C° 0 mm 2 mps 748 mmHg 62%
    16:00 +20°C° 0 mm 1 mps 748 mmHg 67%
    17:00 +19°C° 0 mm 1 mps 748 mmHg 70%
    18:00 +18°C° 0 mm 1 mps 749 mmHg 74%
    19:00 +16°C° 0 mm 1 mps 749 mmHg 78%
    20:00 +16°C° 0 mm 1 mps 749 mmHg 80%
    21:00 +15°C° 0 mm 1 mps 749 mmHg 82%
    22:00 +15°C° 0 mm 1 mps 749 mmHg 84%
    23:00 +15°C° 0 mm 1 mps 750 mmHg 86%

    22 October, Tuesday

    Time Temperature Precipitation Wind Pressure Humidity
    00:00 +14°C° 0 mm 1 mps 750 mmHg 87%
    01:00 +14°C° 0 mm 1 mps 750 mmHg 89%
    02:00 +14°C° 0 mm 1 mps 750 mmHg 90%
    03:00 +14°C° 0 mm 2 mps 750 mmHg 91%
    04:00 +13°C° 0 mm 2 mps 750 mmHg 92%
    05:00 +13°C° 0 mm 2 mps 751 mmHg 93%
    06:00 +13°C° 0 mm 2 mps 751 mmHg 94%
    07:00 +13°C° 0 mm 2 mps 751 mmHg 95%
    08:00 +15°C° 0 mm 2 mps 752 mmHg 88%
    09:00 +16°C° 0 mm 2 mps 752 mmHg 81%
    10:00 +18°C° 0 mm 2 mps 752 mmHg 74%
    11:00 +18°C° 0 mm 3 mps 752 mmHg 72%
    12:00 +19°C° 0 mm 3 mps 752 mmHg 69%
    13:00 +20°C° 0 mm 3 mps 752 mmHg 66%
    14:00 +19°C° 0 mm 2 mps 752 mmHg 69%
    15:00 +18°C° 0 mm 2 mps 752 mmHg 71%
    16:00 +18°C° 0 mm 2 mps 752 mmHg 74%
    17:00 +17°C° 0 mm 2 mps 753 mmHg 76%
    18:00 +16°C° 0 mm 2 mps 753 mmHg 78%
    19:00 +15°C° 0 mm 1 mps 753 mmHg 81%
    20:00 +14°C° 0 mm 1 mps 753 mmHg 81%
    21:00 +14°C° 0 mm 1 mps 753 mmHg 82%
    22:00 +13°C° 0 mm 1 mps 753 mmHg 83%
    23:00 +13°C° 0 mm 1 mps 753 mmHg 84%

    23 October, Wednesday

    Time Temperature Precipitation Wind Pressure Humidity
    00:00 +13°C° 0 mm 1 mps 753 mmHg 85%
    01:00 +12°C° 0 mm 1 mps 753 mmHg 86%
    02:00 +12°C° 0 mm 1 mps 753 mmHg 87%
    03:00 +12°C° 0 mm 1 mps 753 mmHg 88%
    04:00 +12°C° 0 mm 1 mps 753 mmHg 89%
    05:00 +12°C° 0 mm 1 mps 753 mmHg 89%
    06:00 +12°C° 0 mm 1 mps 753 mmHg 90%
    07:00 +12°C° 0 mm 1 mps 753 mmHg 91%
    08:00 +13°C° 0 mm 1 mps 753 mmHg 85%
    09:00 +15°C° 0 mm 2 mps 753 mmHg 80%
    10:00 +16°C° 0 mm 2 mps 753 mmHg 75%
    11:00 +17°C° 0 mm 2 mps 752 mmHg 72%
    12:00 +18°C° 0 mm 2 mps 752 mmHg 69%
    13:00 +19°C° 0 mm 2 mps 752 mmHg 67%
    14:00 +18°C° 0 mm 2 mps 751 mmHg 70%
    15:00 +18°C° 0 mm 2 mps 751 mmHg 74%
    16:00 +17°C° 0 mm 2 mps 751 mmHg 77%
    17:00 +16°C° 0 mm 2 mps 751 mmHg 81%
    18:00 +15°C° 0 mm 2 mps 750 mmHg 85%
    19:00 +15°C° 0 mm 2 mps 750 mmHg 89%
    20:00 +14°C° 0 mm 2 mps 750 mmHg 90%
    21:00 +14°C° 0 mm 2 mps 750 mmHg 90%
    22:00 +14°C° 0 mm 2 mps 750 mmHg 91%
    23:00 +14°C° 0 mm 2 mps 750 mmHg 91%

    24 October, Thursday

    Time Temperature Precipitation Wind Pressure Humidity
    00:00 +13°C° 0 mm 2 mps 750 mmHg 91%
    01:00 +13°C° 0 mm 2 mps 749 mmHg 91%
    02:00 +13°C° 0 mm 2 mps 749 mmHg 91%
    03:00 +13°C° 0 mm 2 mps 749 mmHg 90%
    04:00 +13°C° 0 mm 2 mps 748 mmHg 89%
    05:00 +13°C° 0 mm 2 mps 748 mmHg 88%
    06:00 +13°C° 0 mm 2 mps 748 mmHg 87%
    07:00 +13°C° 0 mm 2 mps 748 mmHg 86%
    08:00 +15°C° 0 mm 2 mps 748 mmHg 77%
    09:00 +17°C° 0 mm 2 mps 748 mmHg 68%
    10:00 +19°C° 0 mm 2 mps 748 mmHg 59%
    11:00 +21°C° 0 mm 2 mps 748 mmHg 54%
    12:00 +23°C° 0 mm 2 mps 748 mmHg 49%
    13:00 +24°C° 0 mm 2 mps 748 mmHg 45%
    14:00 +23°C° 0 mm 2 mps 748 mmHg 49%
    15:00 +21°C° 0 mm 2 mps 747 mmHg 53%
    16:00 +20°C° 0 mm 2 mps 747 mmHg 57%
    17:00 +19°C° 0 mm 2 mps 748 mmHg 60%
    18:00 +18°C° 0 mm 2 mps 748 mmHg 62%
    19:00 +17°C° 0 mm 2 mps 748 mmHg 64%
    20:00 +16°C° 0 mm 2 mps 748 mmHg 68%
    21:00 +15°C° 0 mm 2 mps 749 mmHg 71%
    22:00 +15°C° 0 mm 2 mps 749 mmHg 75%
    23:00 +14°C° 0 mm 2 mps 749 mmHg 78%
    Show more